| time (UTC) | temp C | wind direction | speed KPH | gust KPH | rain 1hr cm | rain 24hr cm | rain mn cm | humidity % | barometer mb |
| 20260506044501 | 22 | 80 | 0.0 | 0.0 | 0.00 | 0.00 | 0.00 | 44 | 1006.8 |
| 20260506043058 | 23 | 80 | 0.0 | 0.0 | 0.00 | 0.00 | 0.00 | 44 | 1006.8 |
| 20260506041556 | 23 | 80 | 0.0 | 0.0 | 0.00 | 0.00 | 0.00 | 42 | 1006.7 |
| 20260506040054 | 24 | 80 | 1.6 | 6.4 | 0.00 | 0.00 | 0.00 | 41 | 1006.5 |
| 20260506034556 | 25 | 79 | 0.0 | 4.8 | 0.00 | 0.00 | 0.00 | 40 | 1006.4 |
| 20260506033055 | 25 | 79 | 0.0 | 0.0 | 0.00 | 0.00 | 0.00 | 40 | 1006.2 |
| 20260506031558 | 26 | 80 | 0.0 | 0.0 | 0.00 | 0.00 | 0.00 | 37 | 1006.1 |
| 20260506030052 | 27 | 79 | 0.0 | 0.0 | 0.00 | 0.00 | 0.00 | 36 | 1006.0 |
| 20260506024559 | 27 | 80 | 0.0 | 6.4 | 0.00 | 0.00 | 0.00 | 35 | 1006.0 |
| 20260506023058 | 28 | 52 | 0.0 | 4.8 | 0.00 | 0.00 | 0.00 | 33 | 1006.0 |
| 20260506021551 | 28 | 42 | 0.0 | 0.0 | 0.00 | 0.00 | 0.00 | 31 | 1006.0 |
| 20260506020051 | 30 | 227 | 0.0 | 0.0 | 0.00 | 0.00 | 0.00 | 25 | 1005.9 |
| 20260506014551 | 29 | 227 | 0.0 | 0.0 | 0.00 | 0.00 | 0.00 | 25 | 1005.9 |
| 20260506013051 | 29 | 226 | 0.0 | 3.2 | 0.00 | 0.00 | 0.00 | 25 | 1005.9 |
| 20260506011549 | 30 | 359 | 1.6 | 8.0 | 0.00 | 0.00 | 0.00 | 25 | 1005.9 |
| 20260506010049 | 30 | 21 | 1.6 | 6.4 | 0.00 | 0.00 | 0.00 | 25 | 1006.0 |
| 20260506004549 | 30 | 11 | 1.6 | 6.4 | 0.00 | 0.00 | 0.00 | 25 | 1006.0 |
| 20260506003049 | 30 | 42 | 0.0 | 8.0 | 0.00 | 0.00 | 0.00 | 26 | 1005.9 |
| 20260506001550 | 30 | 4 | 0.0 | 8.0 | 0.00 | 0.00 | 0.00 | 26 | 1006.0 |
| 20260506000047 | 30 | 8 | 0.0 | 4.8 | 0.00 | 0.00 | 0.00 | 26 | 1006.1 |
| 20260505234550 | 30 | 359 | 0.0 | 4.8 | 0.00 | 0.00 | 0.00 | 27 | 1006.3 |
| 20260505233043 | 30 | 289 | 0.0 | 3.2 | 0.00 | 0.00 | 0.00 | 29 | 1006.4 |
| 20260505231552 | 29 | 56 | 0.0 | 8.0 | 0.00 | 0.00 | 0.00 | 27 | 1006.6 |
| 20260505230052 | 30 | 359 | 0.0 | 0.0 | 0.00 | 0.00 | 0.00 | 30 | 1006.7 |
| 20260505224539 | 29 | 20 | 0.0 | 0.0 | 0.00 | 0.00 | 0.00 | 30 | 1006.8 |
| 20260505223038 | 29 | 359 | 0.0 | 8.0 | 0.00 | 0.00 | 0.00 | 29 | 1007.0 |
| 20260505221536 | 29 | 15 | 3.2 | 12.9 | 0.00 | 0.00 | 0.00 | 31 | 1007.1 |
| 20260505220036 | 28 | 354 | 1.6 | 4.8 | 0.00 | 0.00 | 0.00 | 32 | 1007.2 |
| 20260505214533 | 28 | 262 | 1.6 | 11.3 | 0.00 | 0.00 | 0.00 | 32 | 1007.5 |
| 20260505213029 | 28 | 8 | 0.0 | 0.0 | 0.00 | 0.00 | 0.00 | 33 | 1007.5 |
| 20260505211527 | 28 | 12 | 0.0 | 8.0 | 0.00 | 0.00 | 0.00 | 35 | 1007.6 |
| 20260505210025 | 27 | 12 | 3.2 | 8.0 | 0.00 | 0.00 | 0.00 | 36 | 1007.7 |
| 20260505204524 | 27 | 258 | 1.6 | 12.9 | 0.00 | 0.00 | 0.00 | 35 | 1007.9 |
| 20260505203023 | 27 | 354 | 3.2 | 14.5 | 0.00 | 0.00 | 0.00 | 36 | 1008.0 |
| 20260505201519 | 27 | 359 | 1.6 | 12.9 | 0.00 | 0.00 | 0.00 | 37 | 1008.1 |
| 20260505200018 | 26 | 359 | 1.6 | 9.7 | 0.00 | 0.00 | 0.00 | 39 | 1008.1 |
| 20260505194514 | 26 | 308 | 1.6 | 8.0 | 0.00 | 0.00 | 0.00 | 40 | 1008.1 |
| 20260505193012 | 26 | 291 | 1.6 | 9.7 | 0.00 | 0.00 | 0.00 | 41 | 1008.2 |
| 20260505191509 | 25 | 313 | 1.6 | 8.0 | 0.00 | 0.00 | 0.00 | 42 | 1008.3 |
| 20260505190009 | 25 | 324 | 1.6 | 8.0 | 0.00 | 0.00 | 0.00 | 43 | 1008.4 |
| 20260505184502 | 24 | 4 | 0.0 | 8.0 | 0.00 | 0.00 | 0.00 | 43 | 1008.4 |
| 20260505183059 | 23 | 262 | 1.6 | 8.0 | 0.00 | 0.00 | 0.00 | 45 | 1008.5 |
| 20260505181555 | 23 | 278 | 1.6 | 8.0 | 0.00 | 0.00 | 0.00 | 46 | 1008.5 |
| 20260505174554 | 22 | 308 | 1.6 | 12.9 | 0.00 | 0.00 | 0.00 | 48 | 1008.6 |
| 20260505173046 | 22 | 307 | 0.0 | 12.9 | 0.00 | 0.00 | 0.00 | 50 | 1008.6 |
| 20260505171541 | 21 | 359 | 1.6 | 6.4 | 0.00 | 0.00 | 0.00 | 51 | 1008.5 |
| 20260505170034 | 20 | 335 | 0.0 | 4.8 | 0.00 | 0.00 | 0.00 | 55 | 1008.5 |
| 20260505164530 | 19 | 297 | 1.6 | 4.8 | 0.00 | 0.00 | 0.00 | 58 | 1008.5 |
| 20260505163029 | 18 | 309 | 0.0 | 0.0 | 0.00 | 0.00 | 0.00 | 60 | 1008.5 |
| 20260505161522 | 18 | 308 | 0.0 | 0.0 | 0.00 | 0.00 | 0.00 | 59 | 1008.3 |
| 20260505153013 | 17 | 4 | 1.6 | 4.8 | 0.00 | 0.00 | 0.00 | 62 | 1008.0 |
| 20260505151505 | 17 | 4 | 1.6 | 4.8 | 0.00 | 0.00 | 0.00 | 61 | 1007.9 |
| 20260505124526 | 12 | 10 | 0.0 | 4.8 | 0.00 | 0.00 | 0.00 | 74 | 1006.2 |
| 20260505123031 | 13 | 11 | 0.0 | 3.2 | 0.00 | 0.00 | 0.00 | 73 | 1006.1 |
| 20260505121522 | 13 | 11 | 0.0 | 4.8 | 0.00 | 0.00 | 0.00 | 73 | 1005.8 |
| 20260505120024 | 13 | 11 | 0.0 | 3.2 | 0.00 | 0.00 | 0.00 | 74 | 1005.5 |
| 20260505114517 | 13 | 11 | 1.6 | 3.2 | 0.00 | 0.00 | 0.00 | 74 | 1005.5 |
| 20260505113015 | 13 | 11 | 0.0 | 4.8 | 0.00 | 0.00 | 0.00 | 74 | 1005.4 |
| 20260505111519 | 13 | 10 | 0.0 | 4.8 | 0.00 | 0.00 | 0.00 | 75 | 1005.2 |
| 20260505101511 | 15 | 11 | 1.6 | 4.8 | 0.00 | 0.00 | 0.00 | 73 | 1004.3 |
| 20260505100003 | 15 | 11 | 0.0 | 1.6 | 0.00 | 0.00 | 0.00 | 71 | 1004.1 |
| 20260505094559 | 16 | 12 | 0.0 | 0.0 | 0.00 | 0.00 | 0.00 | 69 | 1004.0 |
| 20260505093103 | 16 | 11 | 0.0 | 3.2 | 0.00 | 0.00 | 0.00 | 68 | 1004.0 |
| 20260505091555 | 16 | 11 | 0.0 | 3.2 | 0.00 | 0.00 | 0.00 | 67 | 1004.0 |
| 20260505090051 | 17 | 11 | 0.0 | 6.4 | 0.00 | 0.00 | 0.00 | 65 | 1003.9 |
| 20260505084550 | 17 | 12 | 0.0 | 6.4 | 0.00 | 0.00 | 0.00 | 64 | 1003.9 |
| 20260505083048 | 17 | 11 | 1.6 | 4.8 | 0.00 | 0.00 | 0.00 | 64 | 1003.8 |
| 20260505081559 | 17 | 8 | 1.6 | 4.8 | 0.00 | 0.00 | 0.00 | 62 | 1003.8 |
| 20260505080051 | 18 | 8 | 0.0 | 1.6 | 0.00 | 0.00 | 0.00 | 60 | 1003.6 |
| 20260505074541 | 18 | 8 | 0.0 | 3.2 | 0.00 | 0.00 | 0.00 | 58 | 1003.5 |
| 20260505073040 | 18 | 8 | 0.0 | 3.2 | 0.00 | 0.00 | 0.00 | 57 | 1003.4 |
| 20260505071542 | 18 | 8 | 0.0 | 0.0 | 0.00 | 0.00 | 0.00 | 55 | 1003.3 |
| 20260505070031 | 19 | 8 | 0.0 | 1.6 | 0.00 | 0.00 | 0.00 | 54 | 1003.0 |
| 20260505064530 | 20 | 9 | 0.0 | 0.0 | 0.00 | 0.00 | 0.00 | 53 | 1002.9 |
| 20260505063033 | 20 | 8 | 0.0 | 3.2 | 0.00 | 0.00 | 0.00 | 51 | 1002.6 |
| 20260505061534 | 20 | 8 | 1.6 | 4.8 | 0.00 | 0.00 | 0.00 | 51 | 1002.5 |
| 20260505060029 | 20 | 8 | 1.6 | 8.0 | 0.00 | 0.00 | 0.00 | 51 | 1002.6 |